Temp
60 60 60 60 60 60 60 59 60 59 60 61 60 61 61 61 62 60 59 59 59 59 58 57 56 56 55 55 56 55 53 53 49 49 50 50 49 50 50 51 51 51 55
60 59 59 59 59 54 54 57 59 57 57 57 58 59 60 61 61 60 58 59 59 58 57 57 55 55 55 56 54 53 52 52 51 47 47 46 45 46 46 46 48 51 50
61 59 59 58 57 56 56 56 57 56 55 55 56 56 58 59 60 59 58 58 57 56 56 56 54 54 53 53 53 52 51 51 50 48 44 45 44 45 45 45 45 45 48
55 57 56 56 56 55 54 54 55 55 55 55 56 56 57 57 57 56 55 54 54 53 53 54 54 54 53 53 52 50 50 49 48 46 44 43 44 44 44 43 43 44 45
57 56 55 56 56 53 52 54 54 54 54 55 54 54 55 55 55 54 54 53 52 52 52 53 53 55 56 54 51 49 49 47 46 45 43 43 42 42 43 43 41 40 40
57 55 56 55 54 53 53 53 54 54 54 54 54 54 54 55 56 55 54 52 52 51 50 51 54 56 56 56 55 54 51 48 46 45 44 42 36 37 37 37 37 37 36
55 56 55 55 53 53 53 53 52 52 53 53 53 54 53 54 56 55 54 51 50 50 50 50 51 53 52 51 53 54 54 54 49 40 36 35 34 35 36 35 35 35 34
54 55 55 54 52 52 51 51 51 51 51 51 52 53 53 54 55 55 53 51 50 50 50 51 50 47 47 45 44 43 42 42 43 45 38 36 37 37 37 37 35 35 35
54 55 54 53 51 51 50 50 50 50 50 50 51 51 52 52 55 55 53 50 49 49 49 48 46 45 52 50 43 41 40 42 52 52 52 52 52 50 45 39 34 33 31
55 54 53 52 51 50 50 49 49 50 50 51 51 52 53 53 55 54 52 47 44 44 44 45 54 48 53 50 41 39 37 38 40 40 40 42 42 45 47 37 35 32 30
55 54 52 51 51 51 51 50 50 51 51 51 51 52 53 54 54 54 52 46 44 43 42 41 47 53 53 51 47 40 40 40 44 38 38 38 37 37 37 37 39 38 36
54 52 51 51 52 52 51 51 51 52 50 48 49 49 50 54 55 54 53 50 48 43 41 41 47 51 52 51 48 52 50 44 39 37 36 34 34 34 35 37 43 42 42
52 50 50 52 52 52 51 51 51 51 48 48 47 46 46 45 51 54 53 51 50 43 44 49 50 50 50 48 49 49 45 38 36 34 32 32 32 33 36 42 38 37 40
51 50 51 51 51 53 53 54 51 49 46 46 45 41 40 41 42 44 46 47 50 47 47 43 45 46 47 44 40 39 38 36 34 32 30 31 33 34 36 39 37 37 33
52 51 52 52 52 52 51 52 51 48 48 44 43 43 41 39 40 45 43 42 40 44 40 38 36 35 35 34 34 35 35 34 33 32 32 32 34 35 37 36 33 33 29
52 52 53 53 52 49 48 47 51 50 51 49 49 46 45 48 50 50 49 48 49 48 39 35 33 33 32 32 32 31 32 34 32 32 30 30 31 32 35 35 37 32 28
53 53 54 51 47 46 47 46 41 47 51 51 51 51 50 50 51 50 50 49 50 46 36 34 33 33 32 32 31 31 31 31 32 31 30 36 36 36 35 34 34 34 32
54 53 54 50 46 44 43 43 43 42 41 42 50 50 50 50 50 49 49 46 40 40 35 34 33 33 32 32 32 31 31 31 32 32 32 31 34 34 33 32 32 31 31
53 53 53 50 47 46 43 42 41 41 40 40 43 47 49 49 49 49 48 39 37 36 35 34 34 33 32 32 32 32 32 31 31 31 31 30 30 29 28 28 32 35 33
53 53 52 50 47 45 43 42 41 40 40 40 40 41 42 43 40 39 40 39 37 36 36 34 34 33 33 33 32 32 31 31 30 30 30 29 29 29 28 28 30 29 29
51 52 52 50 48 45 44 43 42 41 39 39 39 42 45 40 39 38 38 38 37 36 36 35 34 33 33 33 32 31 30 30 30 30 30 30 29 29 29 29 29 28 30
52 52 52 50 49 46 44 44 43 41 40 39 39 42 46 37 38 38 38 39 39 38 37 35 34 33 33 33 32 31 30 31 31 30 30 31 31 30 30 29 29 28 28
53 52 52 51 49 48 45 44 42 42 41 41 41 41 42 39 38 38 39 39 38 37 37 36 34 33 33 34 34 33 31 31 31 32 30 31 30 31 30 28 28 28 28
53 52 51 50 49 47 45 43 43 43 42 42 42 42 41 40 39 40 38 38 38 37 36 35 34 33 33 33 34 34 34 33 33 33 33 32 31 31 30 29 29 29 29
52 52 51 50 48 48 46 44 44 43 43 43 42 42 41 39 40 40 39 38 37 36 35 34 33 34 34 34 34 35 37 38 34 36 33 33 32 32 31 29 29 29 29
52 53 51 50 49 48 47 44 44 44 43 43 43 41 41 40 40 40 39 38 36 35 34 33 33 34 34 34 34 37 38 38 36 38 33 32 32 31 31 30 31 29 29
MSLP
1011.65 1012.13 1012.33 1012.53 1012.94 1013.13 1013.49 1013.71 1013.88 1014.04 1014.18 1014.39 1014.51 1014.55 1014.65 1014.86 1015.09 1015.34 1015.63 1015.90 1016.30 1016.63 1016.97 1017.43 1017.91 1018.18 1018.47 1018.72 1018.86 1019.45 1020.05 1020.50 1021.25 1022.04 1022.25 1022.44 1022.78 1022.85 1022.97 1023.06 1023.03 1023.09 1023.00
1011.77 1012.26 1012.48 1012.79 1013.25 1013.68 1013.95 1014.22 1014.24 1014.42 1014.53 1014.66 1014.66 1014.68 1014.76 1014.80 1014.95 1015.21 1015.52 1015.70 1016.03 1016.53 1016.94 1017.33 1017.62 1017.90 1018.21 1018.49 1018.87 1019.69 1020.17 1020.69 1021.12 1022.04 1022.68 1023.10 1023.45 1023.76 1023.80 1023.77 1023.96 1023.95 1023.90
1011.81 1012.41 1012.73 1013.18 1013.73 1014.16 1014.41 1014.59 1014.64 1014.65 1014.71 1014.70 1014.71 1014.75 1014.80 1014.88 1014.98 1015.22 1015.61 1015.89 1016.38 1016.75 1016.95 1017.10 1017.60 1017.96 1018.26 1018.53 1019.23 1019.90 1020.46 1021.00 1021.43 1022.06 1023.06 1023.52 1023.93 1024.12 1024.30 1024.40 1024.45 1024.48 1024.37
1012.17 1012.73 1013.08 1013.56 1014.01 1014.46 1014.82 1014.95 1014.90 1014.91 1014.80 1014.72 1014.70 1014.77 1014.83 1014.90 1015.14 1015.45 1015.96 1016.49 1016.91 1017.27 1017.56 1017.65 1017.93 1018.23 1018.57 1018.99 1019.63 1020.28 1020.79 1021.45 1021.81 1022.41 1023.23 1023.84 1024.16 1024.41 1024.45 1024.61 1024.73 1024.67 1024.56
1012.39 1012.90 1013.28 1013.68 1014.20 1014.69 1014.95 1015.05 1015.19 1014.94 1014.84 1014.86 1014.89 1014.98 1014.98 1015.28 1015.61 1015.89 1016.46 1017.01 1017.42 1017.83 1018.24 1018.36 1018.38 1018.64 1018.98 1019.36 1019.96 1020.61 1020.93 1021.44 1022.20 1022.95 1023.53 1024.05 1024.59 1024.80 1024.78 1024.83 1024.98 1024.99 1025.03
1012.41 1012.95 1013.46 1013.92 1014.51 1014.85 1015.10 1015.32 1015.32 1015.14 1015.32 1015.32 1015.41 1015.38 1015.51 1015.89 1016.20 1016.58 1017.06 1017.58 1018.13 1018.50 1018.77 1019.10 1019.10 1019.24 1019.73 1020.16 1020.52 1020.87 1021.14 1021.83 1022.57 1023.29 1023.86 1024.63 1025.11 1025.14 1025.13 1025.28 1025.31 1025.38 1025.48
1012.48 1013.25 1013.72 1014.14 1014.77 1015.05 1015.37 1015.59 1015.55 1015.63 1015.89 1015.97 1015.97 1016.02 1016.22 1016.62 1016.87 1017.38 1017.95 1018.38 1018.87 1019.29 1019.69 1019.95 1020.21 1020.64 1020.85 1021.16 1021.40 1021.74 1022.03 1022.30 1022.92 1023.57 1024.47 1025.14 1025.45 1025.54 1025.47 1025.58 1025.61 1025.64 1025.84
1012.67 1013.38 1013.83 1014.47 1014.97 1015.37 1015.70 1016.03 1015.92 1016.23 1016.49 1016.59 1016.63 1016.82 1017.06 1017.47 1017.74 1018.18 1018.65 1019.25 1019.67 1020.22 1020.52 1020.80 1021.11 1021.61 1021.98 1022.25 1022.64 1023.07 1023.49 1023.88 1024.21 1024.34 1024.87 1025.44 1025.66 1025.69 1025.63 1025.73 1025.79 1026.02 1026.20
1012.77 1013.36 1014.00 1014.63 1015.19 1015.62 1016.04 1016.44 1016.43 1016.81 1017.20 1017.28 1017.45 1017.66 1017.92 1018.34 1018.60 1018.93 1019.23 1019.88 1020.61 1021.18 1021.43 1021.64 1021.92 1022.16 1022.42 1022.85 1023.20 1023.77 1024.20 1024.47 1024.46 1024.62 1024.80 1024.95 1025.09 1025.37 1025.62 1025.79 1026.34 1026.40 1026.76
1012.83 1013.48 1014.17 1014.78 1015.43 1015.85 1016.37 1016.74 1017.02 1017.26 1017.65 1017.87 1018.12 1018.48 1018.76 1019.06 1019.39 1019.69 1020.05 1020.73 1021.47 1022.01 1022.18 1022.16 1022.06 1022.42 1022.79 1023.38 1023.86 1024.39 1024.86 1025.27 1025.29 1025.52 1025.92 1026.10 1026.19 1026.06 1026.09 1026.37 1026.59 1026.78 1026.87
1012.94 1013.71 1014.46 1015.09 1015.72 1016.16 1016.64 1017.06 1017.29 1017.66 1018.05 1018.46 1018.85 1019.30 1019.51 1019.75 1020.18 1020.42 1020.85 1021.35 1021.98 1022.54 1022.92 1023.06 1023.04 1022.94 1023.24 1023.89 1024.43 1024.66 1025.00 1025.52 1025.95 1026.35 1026.68 1026.93 1026.99 1026.99 1026.94 1026.76 1026.53 1026.58 1026.62
1013.07 1013.98 1014.74 1015.35 1015.98 1016.47 1016.81 1017.50 1017.77 1018.07 1018.50 1019.11 1019.63 1020.09 1020.35 1020.41 1020.66 1021.00 1021.42 1021.95 1022.60 1022.91 1023.46 1023.62 1023.84 1023.88 1024.05 1024.31 1024.71 1024.79 1025.15 1025.81 1026.52 1026.98 1027.29 1027.60 1027.61 1027.54 1027.39 1027.11 1026.75 1026.75 1026.58
1013.33 1014.26 1015.00 1015.56 1016.27 1016.71 1017.07 1017.69 1018.15 1018.72 1019.04 1019.66 1020.23 1020.81 1021.27 1021.32 1021.39 1021.45 1022.04 1022.64 1023.16 1023.54 1023.80 1024.02 1024.33 1024.57 1024.88 1025.21 1025.46 1025.68 1026.08 1026.71 1027.24 1027.72 1028.17 1028.33 1028.26 1028.00 1027.55 1027.13 1027.29 1027.21 1026.92
1013.48 1014.40 1015.22 1015.76 1016.51 1016.98 1017.32 1017.80 1018.40 1019.04 1019.61 1020.10 1020.73 1021.42 1021.90 1022.23 1022.32 1022.47 1022.94 1023.43 1023.66 1024.04 1024.46 1025.14 1025.30 1025.52 1025.79 1026.26 1026.71 1026.95 1027.26 1027.56 1027.89 1028.41 1028.67 1028.63 1028.40 1028.19 1028.08 1027.89 1027.90 1027.85 1027.64
1013.54 1014.49 1015.38 1016.04 1016.60 1017.27 1017.68 1018.02 1018.70 1019.31 1019.54 1020.15 1021.02 1021.49 1021.89 1022.55 1022.95 1023.15 1023.41 1023.90 1024.31 1024.62 1025.25 1025.77 1026.18 1026.75 1027.02 1027.26 1027.59 1027.91 1028.17 1028.32 1028.56 1028.83 1028.93 1028.97 1028.95 1028.70 1028.63 1028.50 1028.41 1028.36 1028.48
1013.58 1014.57 1015.26 1016.04 1016.77 1017.55 1018.07 1018.70 1019.02 1019.38 1020.03 1020.55 1021.12 1021.41 1022.05 1022.43 1022.87 1023.29 1023.73 1024.09 1024.42 1024.83 1025.57 1026.44 1027.02 1027.41 1027.82 1028.13 1028.50 1028.78 1028.85 1028.98 1029.15 1029.24 1029.39 1029.45 1029.47 1029.30 1029.09 1028.94 1028.76 1028.72 1028.69
1013.38 1014.44 1015.22 1016.04 1016.75 1017.78 1018.44 1018.95 1019.80 1020.29 1020.42 1020.92 1021.42 1021.73 1022.13 1022.47 1022.98 1023.48 1023.88 1024.28 1024.57 1025.10 1026.08 1026.90 1027.39 1027.82 1028.24 1028.50 1028.84 1028.99 1029.29 1029.33 1029.48 1029.64 1029.76 1029.74 1029.63 1029.51 1029.33 1029.30 1029.23 1029.01 1028.86
1013.45 1014.16 1015.03 1016.05 1016.96 1017.86 1018.78 1019.34 1019.88 1020.58 1021.17 1021.55 1021.79 1022.01 1022.45 1022.91 1023.38 1023.81 1024.24 1024.68 1025.24 1025.83 1026.50 1027.18 1027.65 1028.06 1028.36 1028.62 1028.90 1029.12 1029.42 1029.69 1029.77 1029.82 1029.92 1029.92 1029.80 1029.67 1029.62 1029.67 1029.60 1029.35 1029.10
1013.47 1014.26 1015.06 1016.14 1017.15 1017.80 1018.94 1019.64 1020.15 1020.84 1021.58 1022.01 1022.37 1022.75 1023.00 1023.36 1023.77 1024.21 1024.68 1025.15 1025.70 1026.37 1026.90 1027.42 1027.74 1028.01 1028.23 1028.53 1028.91 1029.23 1029.56 1029.83 1030.01 1030.10 1030.13 1030.13 1030.10 1030.04 1030.03 1029.94 1029.68 1029.32 1029.14
1013.40 1013.98 1014.82 1016.00 1017.20 1018.04 1018.89 1019.77 1020.41 1021.04 1021.78 1022.33 1022.66 1023.07 1023.43 1023.83 1024.32 1024.76 1025.16 1025.55 1025.99 1026.54 1027.08 1027.50 1027.78 1027.94 1028.22 1028.65 1029.08 1029.46 1029.81 1030.06 1030.21 1030.24 1030.30 1030.34 1030.32 1030.23 1030.18 1030.14 1029.95 1029.77 1029.53
1013.49 1014.13 1014.77 1015.82 1016.86 1017.76 1018.54 1019.52 1020.30 1020.92 1021.67 1022.42 1022.82 1023.15 1023.50 1023.92 1024.55 1025.02 1025.40 1025.73 1026.05 1026.63 1027.07 1027.40 1027.68 1027.99 1028.30 1028.74 1029.19 1029.56 1029.94 1030.22 1030.32 1030.36 1030.43 1030.48 1030.41 1030.35 1030.30 1030.23 1030.08 1029.80 1029.41
1013.22 1013.93 1014.70 1015.52 1016.49 1017.50 1018.32 1019.15 1020.01 1020.68 1021.39 1022.20 1022.82 1023.26 1023.72 1024.21 1024.64 1025.11 1025.48 1025.75 1026.02 1026.47 1026.80 1027.22 1027.67 1028.00 1028.36 1028.69 1029.09 1029.66 1030.01 1030.15 1030.33 1030.47 1030.54 1030.53 1030.47 1030.43 1030.38 1030.30 1030.08 1029.78 1029.52
1012.86 1013.68 1014.46 1015.26 1016.10 1017.05 1018.03 1018.82 1019.61 1020.32 1021.00 1021.79 1022.41 1022.98 1023.54 1024.08 1024.53 1025.00 1025.39 1025.73 1025.95 1026.40 1026.76 1027.16 1027.71 1028.17 1028.33 1028.58 1028.94 1029.34 1029.73 1030.04 1030.23 1030.39 1030.55 1030.53 1030.50 1030.46 1030.42 1030.35 1030.15 1029.90 1029.70
1012.56 1013.23 1014.02 1014.84 1015.76 1016.66 1017.55 1018.32 1019.18 1019.86 1020.46 1021.22 1021.83 1022.46 1023.09 1023.62 1024.14 1024.68 1025.20 1025.56 1025.89 1026.33 1026.75 1027.21 1027.74 1028.02 1028.35 1028.73 1029.01 1029.20 1029.53 1029.84 1030.07 1030.28 1030.37 1030.46 1030.52 1030.48 1030.43 1030.31 1030.17 1029.96 1029.67
1012.18 1012.85 1013.59 1014.33 1015.14 1016.04 1017.04 1017.85 1018.62 1019.33 1019.92 1020.50 1021.23 1021.94 1022.62 1023.24 1023.79 1024.34 1024.90 1025.34 1025.78 1026.31 1026.82 1027.28 1027.67 1027.93 1028.36 1028.72 1029.01 1029.33 1029.57 1029.86 1030.15 1030.23 1030.38 1030.46 1030.49 1030.42 1030.40 1030.31 1030.16 1029.95 1029.75
1011.72 1012.33 1012.96 1013.85 1014.63 1015.41 1016.32 1017.14 1017.95 1018.69 1019.22 1019.85 1020.59 1021.38 1022.04 1022.76 1023.31 1023.89 1024.47 1025.06 1025.69 1026.29 1026.78 1027.22 1027.60 1027.99 1028.34 1028.74 1029.16 1029.46 1029.68 1029.94 1030.19 1030.26 1030.43 1030.52 1030.53 1030.48 1030.39 1030.24 1030.13 1030.03 1029.90
Wind_Speed
8 6 5 7 7 7 6 6 5 4 4 1 2 2 4 4 4 5 6 7 8 6 5 6 6 6 5 4 5 4 3 3 3 3 3 5 6 6 6 6 7 6 4
8 6 7 7 7 7 6 5 4 4 4 2 0 0 1 4 4 4 5 6 6 6 7 7 7 6 7 6 6 6 6 3 4 3 2 3 4 4 3 4 4 4 4
8 7 7 7 6 5 5 4 4 3 2 1 1 2 2 4 4 3 4 5 6 4 3 4 4 4 5 7 7 6 4 3 3 3 2 2 3 2 3 3 2 1 1
8 6 7 7 6 6 5 3 3 2 3 2 2 3 3 4 5 7 8 8 8 7 5 5 5 6 8 9 8 7 5 4 4 4 3 2 2 1 1 0 1 1 1
9 8 7 7 7 6 5 3 1 4 5 4 5 5 6 6 5 9 10 10 10 9 7 6 7 10 15 12 6 5 6 5 4 3 2 2 2 1 1 1 0 1 3
8 8 7 8 7 6 5 3 4 7 6 6 6 8 9 7 18 19 13 10 10 11 11 10 10 16 18 20 17 13 8 4 3 3 3 4 2 2 3 1 0 1 1
9 8 8 8 7 6 6 5 7 8 7 7 8 9 11 12 23 23 20 11 10 11 10 10 10 10 14 13 20 22 21 18 12 6 6 3 4 3 1 3 4 2 2
9 8 8 8 8 7 7 5 8 8 8 8 10 10 11 12 23 23 22 13 12 11 10 10 11 11 11 11 11 11 10 9 9 8 8 5 5 3 4 1 0 3 3
9 8 10 9 8 8 8 6 8 9 8 8 9 10 11 12 23 23 17 12 12 12 9 9 8 8 17 17 11 11 9 7 13 16 15 15 15 15 11 6 5 4 3
9 10 10 9 9 9 8 8 8 9 9 9 11 11 17 13 18 21 16 9 11 8 7 7 14 10 17 17 9 8 8 4 5 5 5 8 10 10 13 6 3 4 1
11 11 10 9 9 9 9 8 9 11 11 11 10 9 9 11 13 19 18 9 8 7 6 4 6 17 16 16 13 6 5 4 7 6 7 6 5 5 4 4 4 3 2
12 11 11 10 8 8 11 8 10 11 12 10 10 8 6 8 15 18 19 17 14 9 6 4 8 17 18 17 9 13 14 10 6 5 5 4 4 4 4 4 6 5 3
13 12 11 10 9 9 10 9 8 8 9 8 8 8 7 5 9 20 20 21 18 9 6 14 19 18 17 14 16 17 14 6 6 6 4 3 2 2 4 4 5 6 5
14 12 10 11 10 8 6 7 7 7 7 8 8 7 5 5 6 5 8 10 17 11 14 10 11 13 14 11 9 8 6 6 5 4 3 2 2 4 5 5 4 5 3
13 12 11 9 10 7 4 6 6 4 7 9 6 7 8 6 4 10 10 7 5 10 9 5 4 4 5 4 5 6 5 5 5 3 4 4 5 4 4 4 3 3 3
13 10 9 9 8 6 6 6 7 13 15 14 14 9 5 11 18 18 17 17 17 14 5 4 3 4 5 4 5 4 4 6 3 4 4 4 4 4 4 4 5 3 3
14 10 9 8 8 7 6 8 7 7 16 18 16 15 14 15 16 17 18 14 13 10 4 4 4 4 4 4 4 4 3 3 4 4 3 5 4 4 6 5 6 5 5
13 15 10 8 8 8 6 7 8 8 7 5 14 14 17 17 17 16 13 9 6 6 4 4 4 4 4 5 4 4 4 4 3 3 4 3 3 2 3 3 4 5 4
11 10 9 9 8 10 8 7 7 8 7 6 7 10 14 17 16 15 8 4 5 4 4 4 4 4 4 4 4 4 4 3 3 3 3 2 3 3 3 3 4 9 9
11 15 12 10 9 8 8 8 7 8 7 6 6 7 6 9 5 4 2 4 5 4 4 4 4 4 5 4 4 4 4 4 3 3 2 1 2 1 2 3 4 3 4
8 9 15 11 10 9 9 9 8 8 8 6 6 6 13 7 6 4 4 4 5 4 5 4 4 4 4 4 4 4 4 4 3 3 1 1 2 2 3 2 2 3 4
9 9 10 11 10 9 9 9 9 9 9 8 6 8 16 4 5 5 4 4 5 5 4 5 4 4 4 5 4 5 4 4 3 2 1 1 1 3 3 2 3 3 4
10 11 10 10 10 12 10 9 9 9 9 8 8 8 8 6 5 5 5 4 5 5 4 4 5 4 4 4 4 5 5 4 4 3 1 2 2 2 3 2 2 3 4
11 12 11 10 10 10 10 10 9 11 10 10 9 9 8 6 6 6 5 5 5 5 5 5 5 6 5 4 4 4 4 4 3 3 3 2 2 3 2 2 3 4 3
11 12 12 11 12 11 10 10 10 10 10 10 9 8 7 5 6 6 6 6 6 6 5 5 5 7 8 8 6 7 8 9 5 5 3 3 3 3 2 3 3 3 3
11 12 11 10 11 11 11 11 10 10 10 10 9 8 8 8 7 7 7 7 6 6 6 5 6 8 9 7 8 10 11 10 6 7 3 3 2 2 2 3 4 3 4
Wind_Direction
122 123 111 90 79 78 80 65 64 77 78 57 32 51 179 198 187 173 178 168 176 166 159 171 173 165 172 164 145 125 115 103 114 66 65 24 45 54 49 41 39 35 66
122 110 94 94 91 78 76 67 67 75 67 99 92 251 258 203 178 192 184 183 162 156 167 177 184 179 184 153 127 122 115 96 115 118 60 54 70 37 45 48 25 38 20
115 105 95 89 91 91 79 71 77 84 45 359 119 197 189 189 187 144 152 100 87 78 92 145 140 133 115 125 117 111 100 80 71 114 116 69 74 54 52 47 23 7 345
117 126 119 115 114 106 96 94 94 126 129 98 122 178 175 107 97 102 92 90 85 80 75 86 112 125 125 117 103 103 109 109 87 86 79 92 80 40 59 257 311 289 318
127 123 118 113 101 98 97 84 115 86 65 65 72 83 85 100 108 103 99 95 95 87 74 75 94 109 108 99 104 98 99 88 93 99 102 94 92 143 102 102 311 47 9
118 112 111 103 102 102 90 89 87 71 59 75 78 87 81 87 107 104 100 94 88 82 75 61 72 87 93 93 91 91 101 116 115 105 78 88 46 43 23 26 61 109 80
121 118 123 111 110 103 92 92 89 78 80 77 83 90 94 100 102 99 97 87 87 84 85 84 82 79 79 79 75 75 72 83 87 109 99 80 66 3 63 28 40 74 104
125 133 123 119 111 105 96 93 90 82 82 83 80 81 91 99 105 104 97 94 86 77 79 90 92 90 91 93 89 81 76 72 76 85 90 106 117 58 88 109 98 98 59
136 142 127 123 117 113 102 102 93 95 88 84 86 91 95 99 107 103 96 86 83 77 72 77 96 103 109 106 94 92 78 69 92 97 92 87 79 74 78 59 29 61 40
136 127 125 122 121 116 111 108 99 95 95 93 91 92 105 106 103 105 101 98 90 83 61 56 95 117 109 110 104 107 102 112 101 60 36 46 45 58 66 82 85 67 82
125 120 119 120 121 120 112 116 113 110 105 97 92 88 91 102 108 108 106 101 104 98 86 66 80 94 117 110 111 108 127 134 101 84 79 68 53 46 32 23 33 72 21
124 120 123 125 128 125 117 119 119 115 108 101 94 84 59 101 113 112 110 108 110 104 98 78 91 97 97 91 79 88 82 78 85 77 72 55 50 34 9 13 32 9 11
125 125 129 127 132 132 125 134 121 118 118 111 107 100 87 57 104 114 114 113 108 95 99 106 99 92 81 77 85 79 73 69 77 74 65 47 22 329 8 26 12 8 13
131 132 134 134 136 137 126 130 130 127 128 122 123 113 103 89 88 86 108 117 116 105 103 101 104 97 90 87 69 57 69 75 86 90 78 52 22 32 31 13 12 2 26
134 138 140 142 142 131 88 129 136 120 145 140 139 135 134 129 137 129 126 119 119 121 103 78 77 69 74 66 58 61 64 61 71 61 53 42 32 18 37 23 5 15 36
139 147 152 151 129 119 113 85 83 131 130 128 132 135 129 137 140 135 134 134 132 126 86 102 97 97 100 98 89 79 58 72 71 73 59 52 41 31 30 11 18 22 10
147 150 147 131 128 126 124 123 111 83 132 139 142 145 144 152 146 141 141 139 142 112 97 104 111 112 117 105 110 99 94 96 92 89 84 58 46 42 28 25 12 0 0
152 149 145 139 135 126 131 128 126 128 126 118 133 136 135 136 138 137 130 106 103 92 101 123 123 125 122 115 126 121 115 99 91 76 61 59 42 24 42 38 6 347 354
151 152 144 139 143 137 133 131 126 121 124 124 123 129 139 138 139 139 128 119 123 116 121 120 131 134 123 121 117 115 126 126 111 87 72 60 30 43 21 13 6 3 3
160 150 141 142 143 141 140 143 139 134 135 141 145 150 145 136 149 148 120 129 121 124 133 139 146 134 126 126 122 117 105 106 108 100 90 63 9 13 357 345 333 345 350
163 153 149 146 153 157 153 156 156 149 147 154 158 164 163 153 155 153 149 147 139 141 149 151 149 134 128 129 125 120 120 133 134 121 115 20 347 17 10 38 29 342 321
163 162 159 158 155 155 159 156 159 156 153 154 154 167 168 137 151 152 155 153 149 151 155 149 146 140 144 148 142 133 145 152 137 147 130 356 57 46 47 32 353 339 336
165 168 166 160 160 156 157 157 159 161 157 158 162 164 174 168 166 163 161 156 145 146 147 141 135 135 141 138 140 150 155 162 171 160 141 91 87 59 45 15 343 337 349
170 172 168 162 160 161 163 162 163 164 159 162 167 171 177 171 165 166 158 152 144 142 144 141 142 148 140 126 126 142 141 146 148 163 146 110 63 51 42 351 342 334 324
173 174 170 169 166 166 162 164 166 167 167 168 169 169 169 159 159 157 153 153 150 145 152 144 150 152 145 140 138 136 145 134 134 131 103 95 83 68 357 356 350 342 347
177 178 173 171 172 168 167 167 169 170 171 172 170 166 166 166 160 155 155 157 150 146 148 148 156 153 147 140 138 138 135 134 129 117 92 97 73 20 14 25 33 4 351